Weather Roundup
Issued by NWS Chicago, IL

Home | Current Version | Previous Version | Text Only | Print | Product List | Glossary Off
Versions: 1 2 3 4 5 6 7 8 9 10 11 12 13 14 15 16 17 18 19 20 21 22 23 24 25 26 27 28 29 30 31 32 33 34 35 36 37 38 39 40 41 42 43 44 45 46 47 48 49 50

000
NZUS59 KLOT 041508
HRRLOT

CHICAGO AREA WEATHER ROUNDUP
NATIONAL WEATHER SERVICE CHICAGO/ROMEOVILLE IL
1000 AM CDT MON MAY 04 2015

NOTE: "FAIR" INDICATES FEW OR NO CLOUDS BELOW 12,000 FEET WITH NO
SIGNIFICANT WEATHER AND/OR OBSTRUCTIONS TO VISIBILITY.

* THESE STATIONS ARE NOT UNDER NWS QUALITY CONTROL. THEY ALSO MAY NOT
  REPORT WEATHER SUCH AS PRECIPITATION OR FOG.

ILZ005-006-012>014-019>023-041600-
NORTHEAST ILLINOIS

CITY           SKY/WX    TMP DP  RH WIND       PRES   REMARKS
OHARE          CLOUDY    66  58  75 W10       30.07R
MIDWAY         CLOUDY    69  59  70 W8        30.07R
AURORA         CLOUDY    64  57  78 CALM      30.08R
LANSING*       CLOUDY    64  57  78 SW3       30.08R
JOLIET*        CLOUDY    66  61  82 CALM      30.08R
WAUKEGAN       CLOUDY    65  57  75 SW6       30.06R
DUPAGE AIRPORT CLOUDY    65  58  78 W8        30.07S
WHEELING       PTSUNNY   67  56  67 W9        30.08R
KANKAKEE*      DRIZZLE   61  60  95 S8        30.07F
MORRIS*        CLOUDY    64  58  81 SW3       30.06R
LEWIS AIRPORT* CLOUDY    64  58  82 N7        30.08R
NORTHERLY IS     N/A     66  56  70 W8          N/A
$$

WIZ051-052-058>065-066-070>072-041600-
SOUTHEAST WISCONSIN

CITY           SKY/WX    TMP DP  RH WIND       PRES   REMARKS
MILWAUKEE      CLOUDY    68  54  60 W7        30.05R
KENOSHA*       CLOUDY    64  58  80 W7        30.06R
RACINE*        CLOUDY    67  55  65 NW6       30.07R
BURLINGTON     CLOUDY    63  56  80 W7        30.08R
WAUKESHA       PTSUNNY   63  55  77 W6        30.08R
WEST BEND      CLOUDY    61  54  77 N9        30.05R
$$

INZ001>003-010>013-019-020-041600-
NORTHWEST INDIANA

CITY           SKY/WX    TMP DP  RH WIND       PRES   REMARKS
GARY*          CLOUDY    66 N/A N/A SW7       30.08R
MICHIGAN CITY* NOT AVBL
RENSSELAER*    NOT AVBL
VALPARAISO     CLOUDY    63  59  87 S6        30.09R
$$

LMZ740>746-041600-
SOUTHERN LAKE MICHIGAN

STATION/POSITION TIME  SKY/WX   TEMP WIND        PRES    VSBY
                                AIR  DIR/SP/G
                 (UTC)          (F)  (DEG/KT/KT) (MB)    (MI)
HARRISON CRIB    1400            65  260/ 14/ 18   N/A
BURNHAM HARBOR   1500            67  280/  9/ 14   N/A
CALUMET HARBOR   1400            65  230/  4/  9   N/A
BURNS HARBOR     1400            58  230/  6/ 10 1018.6R
MICHIGAN CITY    1400            58  200/ 13/ 15   N/A
$$

ABBREVIATIONS USED IN REMARKS
   TC - TEMPERATURE IN CELSIUS
  WCI - WIND CHILL INDEX
   HX - HEAT INDEX
  VSB - VISIBILITY
$$



USA.gov is the U.S. government's official web portal to all federal, state and local government web resources and services.